Augusta, Maine, United States (04330)
Lat: 44.31N, Lon: 69.78W
Wx Zone: MEZ021
Local Info
Past Weather Observations for Wednesday, March 25, 2015

NOTE: This archive is for the closest National Weather Service station to Augusta. Information may differ from the station used for current weather conditions.

Click here for Long-term Archive

Time Weather Temperature Dewpoint Humidity Pressure Winds Precip Visibility
23:53
Overcast
34°F / 1°C 28°F / -2°C 81% 30.04 in
(1017 mb)
SSE 13.8 mph
(SSE 22 kph)
- 10SM
23:23
Overcast
34°F / 1°C 28°F / -2°C 81% 30.06 in
(1018 mb)
SSE 12.7 mph
(SSE 20 kph)
- 10SM
22:53
Overcast
34°F / 1°C 28°F / -2°C 81% 30.06 in
(1018 mb)
S 9.2 mph
(S 15 kph)
- 10SM
21:53
Overcast
34°F / 1°C 30°F / -1°C 87% 30.12 in
(1020 mb)
S 10.4 mph
(S 17 kph)
0.00 in
(0.00 mm)
9SM
21:30
Overcast
Light Snow
34°F / 1°C 30°F / -1°C 87% 30.12 in
(1020 mb)
S 9.2 mph
(S 15 kph)
0.00 in
(0.00 mm)
5SM
21:23
Overcast
Light Snow
34°F / 1°C 28°F / -2°C 81% 30.12 in
(1020 mb)
SSE 6.9 mph
(SSE 11 kph)
0.00 in
(0.00 mm)
3SM
21:12
Overcast
Light Snow
34°F / 1°C 28°F / -2°C 81% 30.12 in
(1020 mb)
SSE 11.5 mph
(SSE 19 kph)
0.00 in
(0.00 mm)
2 1/2SM
20:53
Overcast
Light Snow
36°F / 2°C 27°F / -3°C 70% 30.15 in
(1021 mb)
S 10.4 mph
(S 17 kph)
0.00 in
(0.00 mm)
8SM
19:53
Partly Cloudy
34°F / 1°C 27°F / -3°C 75% 30.18 in
(1022 mb)
S 6.9 mph
(S 11 kph)
- 10SM
18:53
Clear
34°F / 1°C 21°F / -6°C 60% 30.18 in
(1022 mb)
S 9.2 mph
(S 15 kph)
- 10SM
17:53
Clear
36°F / 2°C 18°F / -8°C 48% 30.21 in
(1023 mb)
S 8.1 mph
(S 13 kph)
- 10SM
16:53
Clear
37°F / 3°C 14°F / -10°C 38% 30.21 in
(1023 mb)
S 9.2 mph
(S 15 kph)
- 10SM
15:53
Clear
39°F / 4°C 16°F / -9°C 39% 30.24 in
(1024 mb)
S 12.7 mph
(S 20 kph)
- 10SM
14:53
Clear
43°F / 6°C 12°F / -11°C 29% 30.24 in
(1024 mb)
SSE 10.4 mph
(SSE 17 kph)
- 10SM
13:53
Clear
43°F / 6°C 16°F / -9°C 34% 30.27 in
(1025 mb)
S 9.2 mph
(S 15 kph)
- 10SM
12:53
Clear
43°F / 6°C 14°F / -10°C 31% 30.3 in
(1026 mb)
Variable 6.9 mph
(Variable 11 kph)
- 10SM
11:53
Clear
41°F / 5°C 12°F / -11°C 31% 30.33 in
(1027 mb)
S 6.9 mph
(S 11 kph)
- 10SM
10:53
Clear
39°F / 4°C 12°F / -11°C 33% 30.36 in
(1028 mb)
SSE 5.8 mph
(SSE 9 kph)
- 10SM
09:53
Clear
36°F / 2°C 12°F / -11°C 38% 30.36 in
(1028 mb)
Calm - 10SM
08:53
Clear
34°F / 1°C 14°F / -10°C 44% 30.39 in
(1029 mb)
Calm - 10SM
07:53
Clear
30°F / -1°C 14°F / -10°C 51% 30.39 in
(1029 mb)
Calm - 10SM
06:53
Clear
27°F / -3°C 12°F / -11°C 54% 30.36 in
(1028 mb)
SSE 3.5 mph
(SSE 6 kph)
- 10SM
05:53
Clear
19°F / -7°C 12°F / -11°C 73% 30.36 in
(1028 mb)
Calm - 10SM
04:53
Clear
21°F / -6°C 12°F / -11°C 68% 30.36 in
(1028 mb)
Calm - 10SM
03:53
Clear
23°F / -5°C 12°F / -11°C 63% 30.33 in
(1027 mb)
NW 4.6 mph
(NW 7 kph)
- 10SM
02:53
Clear
21°F / -6°C 12°F / -11°C 68% 30.33 in
(1027 mb)
NNW 4.6 mph
(NNW 7 kph)
- 10SM
01:53
Clear
28°F / -2°C 10°F / -12°C 47% 30.33 in
(1027 mb)
W 3.5 mph
(W 6 kph)
- 10SM
00:53
Clear
28°F / -2°C 12°F / -11°C 51% 30.3 in
(1026 mb)
NW 3.5 mph
(NW 6 kph)
- 10SM
Time Weather Temperature Dewpoint Humidity Pressure Winds Precip Visibility


Weather for websites

WeatherForYou.com, LLC is not responsible for any damages or problems caused by this service. Current weather conditions are obtained from the closest station including government and personal stations which may have varying degrees of accuracy. Weather forecasts are derived from the NOAA NDFD. Like all things, this site belongs to Jesus Christ... He just trusts me to maintain it. If you have any questions or comments email webmaster@weatherforyou.com

Copyright © 2015, WeatherForYou.com LLC. All rights reserved.